Regional Weather Roundup
Issued by NWS

Home | Current Version | Previous Version | Graphics & Text | Print | Product List | Glossary On
Versions: 1 2 3 4 5 6 7 8 9 10 11 12 13 14 15 16 17 18 19 20 21 22 23 24 25 26 27 28 29 30 31 32 33 34 35 36 37 38 39 40 41 42 43 44 45 46 47 48 49 50
000
ASUS43 KBIS 070910
RWRND

NORTH DAKOTA REGIONAL WEATHER ROUNDUP
NATIONAL WEATHER SERVICE BISMARCK ND
300 AM CST SUN FEB 07 2016

NOTE: "FAIR" INDICATES FEW OR NO CLOUDS BELOW 12,000 FEET WITH NO
SIGNIFICANT WEATHER AND/OR OBSTRUCTIONS TO VISIBILITY.


NDZ001>003-009>011-017-071000-
NORTHWEST NORTH DAKOTA

CITY           SKY/WX    TMP DP  RH WIND       PRES   REMARKS
WILLISTON      PTCLDY    35  21  56 W23G40    29.83S
MINOT          MOCLDY    38  20  48 W24G37    29.69R
MINOT AFB      PTCLDY    35  23  62 W20G30    29.67R
$$

NDZ018>021-031>035-040>046-071000-
SOUTHWEST NORTH DAKOTA

CITY           SKY/WX    TMP DP  RH WIND       PRES   REMARKS
BISMARCK       CLEAR     39  25  57 W26G35    29.79S
DICKINSON      CLEAR     32  24  72 W25G36    29.85F WCI  19
GARRISON         N/A     34  22  61 W20G28    29.75R
HETTINGER ARPT CLOUDY    33  26  75 W24       29.94R
$$

NDZ004>008-012>016-024-026-027-054-071000-
NORTHEAST NORTH DAKOTA

CITY           SKY/WX    TMP DP  RH WIND       PRES   REMARKS
GRAND FORKS    SNOW      34  31  88 NW25G32   29.49R
GRND FRKS AFB  LGT SNOW  34  32  93 W25G40    29.49R FOG
DEVILS LAKE    MOCLDY    35  27  72 W31G38    29.55R
$$

NDZ022-023-025-028>030-036>039-047>053-071000-
SOUTHEAST NORTH DAKOTA

CITY           SKY/WX    TMP DP  RH WIND       PRES   REMARKS
FARGO          LGT RAIN  36  32  85 W22       29.56R
JAMESTOWN      PTCLDY    36  24  62 W29G38    29.63R
$$




USA.gov is the U.S. government's official web portal to all federal, state and local government web resources and services.